Aitkin, MN

3:25 AM CDT on June 29, 2017 (GMT -0500)
Aitkin Municipal / Steve Kurtz Field

Weather History for KAIT - April, 2013

Change the Weather History Date:

Thursday, April 18, 2013

  Actual Average Record
Temperature  
Mean Temperature 32 °F -  
Max Temperature 33 °F 53 °F 80 °F (2005)
Min Temperature 30 °F 31 °F 18 °F (1960)
Degree Days  
Heating Degree Days 34    
Moisture  
Dew Point 25 °F    
Average Humidity 79    
Maximum Humidity 86    
Minimum Humidity 70    
Precipitation  
Precipitation 0.15 in - - ()
Sea Level Pressure  
Sea Level Pressure 29.76 in    
Wind  
Wind Speed 11 mph (North)    
Max Wind Speed 20 mph    
Max Gust Speed 28 mph    
Visibility 3 miles    
Events Snow    
Averages and records for this station are not official NWS values.
T = Trace of Precipitation, MM = Missing Value Source: NWS Daily Summary

Daily Weather History Graph

Daily Weather History Graph

Search for Another Location

Airport or City:

Trip Planner

Search our weather history database for the weather conditions in past years. The results will help you decide how hot, cold, wet, or windy it might be!

Date:

Astronomy

Apr. 18, 2013 Rise Set
Actual Time 6:21 AM CDT 8:07 PM CDT
Civil Twilight 5:49 AM CDT 8:39 PM CDT
Nautical Twilight 5:10 AM CDT 9:18 PM CDT
Astronomical Twilight 4:28 AM CDT 10:01 PM CDT
Moon 12:30 PM CDT (4/18) 2:26 AM CDT (4/18)
Length of Visible Light 14h 49m
Length of Day
13h 45m
First Quarter, 52% of the Moon is Illuminated
Apr 18
First Quarter
Apr 25
Full
May 2
Last Quarter
May 9
New
May 17
First Quarter

Hourly Weather History & Observations

Time (CDT) Temp. Windchill Dew Point Humidity Pressure Visibility Wind Dir Wind Speed Gust Speed Precip Events Conditions
12:13 AM 30.2 °F 22.6 °F 24.8 °F 80% 30.02 in 4.0 mi North 8.1 mph - N/A Snow Light Snow
12:33 AM 30.2 °F 23.4 °F 24.8 °F 80% 30.01 in 2.5 mi NNE 6.9 mph - N/A Snow Light Snow
12:52 AM 30.2 °F 24.3 °F 24.8 °F 80% 30.01 in 2.5 mi NNE 5.8 mph - N/A Snow Light Snow
1:13 AM 30.2 °F 24.3 °F 24.8 °F 80% 30.00 in 3.0 mi North 5.8 mph - 0.01 in Snow Light Snow
1:33 AM 30.2 °F 24.3 °F 24.8 °F 80% 29.98 in 2.5 mi North 5.8 mph - 0.01 in Snow Light Snow
1:52 AM 30.2 °F 23.4 °F 24.8 °F 80% 29.97 in 2.0 mi North 6.9 mph - 0.02 in Snow Light Snow
2:13 AM 30.2 °F 24.3 °F 24.8 °F 80% 29.95 in 3.0 mi North 5.8 mph - N/A Snow Light Snow
2:33 AM 30.2 °F 25.4 °F 24.8 °F 80% 29.93 in 5.0 mi North 4.6 mph - N/A Snow Light Snow
2:52 AM 30.2 °F 23.4 °F 24.8 °F 80% 29.91 in 5.0 mi North 6.9 mph - 0.01 in Snow Light Snow
3:13 AM 30.2 °F 22.6 °F 24.8 °F 80% 29.91 in 7.0 mi North 8.1 mph - N/A Snow Light Snow
3:33 AM 30.2 °F 21.9 °F 24.8 °F 80% 29.91 in 7.0 mi North 9.2 mph - N/A Snow Light Snow
3:52 AM 30.2 °F 21.3 °F 24.8 °F 80% 29.90 in 7.0 mi North 10.4 mph - N/A Snow Light Snow
4:32 AM 30.2 °F 21.3 °F 24.8 °F 80% 29.91 in 4.0 mi North 10.4 mph - N/A Snow Light Snow
4:53 AM 30.2 °F 21.9 °F 24.8 °F 80% 29.90 in 3.0 mi North 9.2 mph - N/A Snow Light Snow
5:12 AM 30.2 °F 21.3 °F 24.8 °F 80% 29.88 in 2.5 mi North 10.4 mph - N/A Snow Light Snow
5:32 AM 30.2 °F 21.9 °F 24.8 °F 80% 29.87 in 2.0 mi North 9.2 mph - N/A Snow Light Snow
5:52 AM 30.2 °F 21.9 °F 24.8 °F 80% 29.87 in 3.0 mi North 9.2 mph - N/A Snow Light Snow
6:12 AM 30.2 °F 21.9 °F 24.8 °F 80% 29.87 in 3.0 mi North 9.2 mph - N/A Snow Light Snow
6:33 AM 30.2 °F 21.9 °F 24.8 °F 80% 29.86 in 3.0 mi North 9.2 mph - N/A Snow Light Snow
6:53 AM 30.2 °F 21.3 °F 24.8 °F 80% 29.84 in 3.0 mi North 10.4 mph - N/A Snow Light Snow
7:12 AM 30.2 °F 21.3 °F 24.8 °F 80% 29.85 in 3.0 mi North 10.4 mph 16.1 mph N/A Snow Light Snow
7:33 AM 30.2 °F 21.3 °F 24.8 °F 80% 29.85 in 2.0 mi North 10.4 mph - N/A Snow Light Snow
7:53 AM 30.2 °F 21.3 °F 24.8 °F 80% 29.84 in 2.5 mi North 10.4 mph - N/A Snow Light Snow
8:12 AM 30.2 °F 20.8 °F 24.8 °F 80% 29.83 in 4.0 mi North 11.5 mph 16.1 mph N/A Snow Light Snow
8:33 AM 30.2 °F 20.8 °F 24.8 °F 80% 29.83 in 2.5 mi North 11.5 mph - N/A Snow Light Snow
8:53 AM 30.2 °F 19.8 °F 24.8 °F 80% 29.83 in 3.0 mi North 13.8 mph 18.4 mph N/A Snow Light Snow
9:12 AM 30.2 °F 19.8 °F 24.8 °F 80% 29.82 in 2.5 mi North 13.8 mph 17.3 mph N/A Snow Light Snow
9:33 AM 30.2 °F 20.2 °F 24.8 °F 80% 29.81 in 3.0 mi North 12.7 mph 19.6 mph N/A Snow Light Snow
9:53 AM 30.2 °F 18.5 °F 24.8 °F 80% 29.78 in 4.0 mi North 17.3 mph - N/A Snow Light Snow
10:33 AM 32.0 °F 22.5 °F 24.8 °F 75% 29.78 in 5.0 mi North 12.7 mph 19.6 mph N/A Snow Light Snow
10:53 AM 32.0 °F 20.5 °F 24.8 °F 75% 29.77 in 7.0 mi North 18.4 mph 23.0 mph N/A   Overcast
11:12 AM 32.0 °F 22.1 °F 24.8 °F 75% 29.75 in 10.0 mi North 13.8 mph - N/A   Overcast
11:33 AM 32.0 °F 20.8 °F 24.8 °F 75% 29.74 in 10.0 mi North 17.3 mph 21.9 mph N/A   Overcast
11:42 AM 32.0 °F 21.6 °F 24.8 °F 75% 29.74 in 10.0 mi North 15.0 mph - N/A   Overcast
12:21 PM 33.8 °F 25.3 °F 24.8 °F 70% 29.74 in 10.0 mi North 11.5 mph 20.7 mph N/A   Overcast
12:42 PM 33.8 °F 24.8 °F 24.8 °F 70% 29.74 in 5.0 mi North 12.7 mph 18.4 mph N/A Snow Light Snow
12:53 PM 33.8 °F 24.8 °F 24.8 °F 70% 29.74 in 4.0 mi North 12.7 mph 20.7 mph N/A Snow Light Snow
1:13 PM 32.0 °F 21.6 °F 24.8 °F 75% 29.73 in 1.0 mi North 15.0 mph 20.7 mph N/A Snow Light Snow
1:33 PM 32.0 °F 23.0 °F 24.8 °F 75% 29.72 in 0.8 mi North 11.5 mph 19.6 mph 0.01 in Snow Light Snow
1:53 PM 32.0 °F 22.1 °F 26.6 °F 80% 29.71 in 0.8 mi North 13.8 mph - 0.02 in Snow Light Snow
2:12 PM 32.0 °F 23.6 °F 26.6 °F 80% 29.71 in 0.8 mi North 10.4 mph - N/A Snow Light Snow
2:33 PM 32.0 °F 21.2 °F 26.6 °F 80% 29.71 in 0.8 mi North 16.1 mph 21.9 mph 0.01 in Snow Light Snow
2:52 PM 32.0 °F 23.6 °F 26.6 °F 80% 29.70 in 1.0 mi North 10.4 mph - 0.01 in Snow Light Snow
3:12 PM 32.0 °F 21.6 °F 26.6 °F 80% 29.70 in 0.5 mi North 15.0 mph 18.4 mph N/A Snow Light Snow
3:33 PM 32.0 °F 22.5 °F 26.6 °F 80% 29.69 in 0.8 mi North 12.7 mph 24.2 mph 0.01 in Snow Light Snow
3:53 PM 32.0 °F 21.2 °F 26.6 °F 80% 29.68 in 1.0 mi North 16.1 mph 27.6 mph 0.01 in Snow Light Snow
4:12 PM 32.0 °F 21.2 °F 26.6 °F 80% 29.66 in 0.5 mi North 16.1 mph 25.3 mph N/A Snow Light Snow
4:33 PM 32.0 °F 20.1 °F 24.8 °F 75% 29.64 in 0.2 mi North 19.6 mph - N/A Snow Snow
4:52 PM 32.0 °F 23.6 °F 26.6 °F 80% 29.67 in 0.2 mi NNW 10.4 mph - 0.01 in Snow Snow
5:13 PM 30.2 °F 19.8 °F 26.6 °F 86% 29.65 in 0.5 mi NNW 13.8 mph 19.6 mph N/A Snow Snow
5:32 PM 30.2 °F 19.3 °F 24.8 °F 80% 29.65 in 0.5 mi North 15.0 mph 24.2 mph 0.01 in Snow Snow
5:52 PM 30.2 °F 18.9 °F 24.8 °F 80% 29.65 in 0.2 mi NNW 16.1 mph 24.2 mph 0.02 in Snow Snow
6:13 PM 30.2 °F 17.8 °F 24.8 °F 80% 29.63 in 0.2 mi North 19.6 mph - N/A Snow Heavy Snow
6:32 PM 30.2 °F 18.5 °F 24.8 °F 80% 29.63 in 0.2 mi NNW 17.3 mph 23.0 mph 0.01 in Snow Snow
6:52 PM 30.2 °F 18.1 °F 24.8 °F 80% 29.63 in 0.2 mi North 18.4 mph 26.5 mph 0.01 in Snow Snow
7:13 PM 30.2 °F 17.8 °F 24.8 °F 80% 29.61 in 0.2 mi North 19.6 mph 25.3 mph 0.01 in Snow Snow
7:32 PM 30.2 °F 18.5 °F 24.8 °F 80% 29.62 in 0.8 mi North 17.3 mph 25.3 mph 0.01 in Snow Light Snow
7:52 PM 30.2 °F 18.1 °F 24.8 °F 80% 29.60 in 0.8 mi NNW 18.4 mph 25.3 mph 0.01 in Snow Light Snow
8:13 PM 30.2 °F 19.3 °F 24.8 °F 80% 29.59 in 1.5 mi NNW 15.0 mph 23.0 mph N/A Snow Light Snow
8:32 PM 30.2 °F 19.3 °F 24.8 °F 80% 29.59 in 0.8 mi NNW 15.0 mph 23.0 mph N/A Snow Snow
8:52 PM 30.2 °F 18.9 °F 24.8 °F 80% 29.60 in 1.2 mi NNW 16.1 mph 23.0 mph 0.01 in Snow Light Snow
9:13 PM 30.2 °F 18.9 °F 24.8 °F 80% 29.60 in 1.5 mi NNW 16.1 mph 23.0 mph N/A Snow Light Snow
9:32 PM 30.2 °F 18.5 °F 24.8 °F 80% 29.60 in 0.8 mi NNW 17.3 mph 23.0 mph N/A Snow Snow
9:52 PM 30.2 °F 19.3 °F 24.8 °F 80% 29.61 in 1.0 mi North 15.0 mph 19.6 mph N/A Snow Snow
10:32 PM 30.2 °F 19.8 °F 24.8 °F 80% 29.59 in 0.8 mi NNW 13.8 mph 20.7 mph 0.01 in Snow Snow
10:53 PM 30.2 °F 21.3 °F 24.8 °F 80% 29.59 in 1.2 mi NNW 10.4 mph 17.3 mph 0.01 in Snow Light Snow
11:12 PM 30.2 °F 20.2 °F 24.8 °F 80% 29.59 in 1.2 mi NNW 12.7 mph 20.7 mph N/A Snow Light Snow
11:33 PM 30.2 °F 20.8 °F 24.8 °F 80% 29.58 in 0.8 mi NNW 11.5 mph 20.7 mph N/A Snow Snow
11:53 PM 30.2 °F 19.8 °F 24.8 °F 80% 29.57 in 0.5 mi NNW 13.8 mph 18.4 mph 0.01 in Snow Snow